Find Meteor

NORAD ID: 6659 Int'l Des: 1973-034 Owner: GUKOSR/GMS Country: SU operational
LEOCIRCULARPOLAR

Live Position

Loading 3D Globe...

About Meteor

Description loading...

Upcoming Passes

Passes for default location (London). Set your location on the main map for personalized predictions.

Altitude History

Loading altitude history...

Two-Line Element Set

1 6659U 73034A 26104.83212211 .00000038 00000-0 14531-4 0 9995
2 6659 81.1866 308.1885 0026882 223.5924 136.3124 14.10537225718493
Epoch: Apr 14, 2026 • Age: 7 hours

Current Status

Altitude 875.1 km
Velocity 7.41 km/s
Sub-Earth Point 3.15°N, 63.18°E
Type other

Most Searched